Location: Foots Cray
(51.4000°N, 0.1167°E)
Time: 00:38:59
(UTC+00:00)

Cosmos 2219 Rocket - Pass Details

Date: 15 May 2026
Orbit: 825 x 846 km, 71.0° (Epoch: 9 June)

Event Time Altitude Azimuth Distance (km) Brightness Sun altitude
Rises 23:41:15 0° 317° (NW) 3,407 6.2 -19.5°
Reaches altitude 10° 23:44:57 10° 293° (WNW) 2,470 4.9 -19.5°
Maximum altitude 23:47:39 14° 264° (W) 2,209 4.3 -19.5°
Enters shadow 23:49:54 11° 239° (WSW) 2,388 4.3 -19.5°
